Time,TemperatureF,DewpointF,PressureIn,WindDirection,WindDirectionDegrees,WindSpeedMPH,WindSpeedGustMPH,Humidity,HourlyPrecipIn,Conditions,Clouds,dailyrainin,SoftwareType,DateUTC
2013-05-07 00:01:00,57.0,30.4,29.50,ENE,73,0.0,0.0,36,-99.99,,---,-99.99,VWS V14.01,2013-05-07 04:01:00,
2013-05-07 00:02:00,57.0,30.4,29.50,ENE,73,0.0,0.0,36,-99.99,,---,-99.99,VWS V14.01,2013-05-07 04:02:00,
2013-05-07 00:03:00,57.0,31.0,29.50,ENE,73,0.0,0.0,37,-99.99,,---,-99.99,VWS V14.01,2013-05-07 04:03:00,
2013-05-07 00:08:00,56.8,30.9,29.50,ENE,73,0.0,0.0,37,-99.99,,---,-99.99,VWS V14.01,2013-05-07 04:08:00,
2013-05-07 00:13:00,56.7,30.7,29.50,ENE,73,0.0,0.0,37,-99.99,,---,-99.99,VWS V14.01,2013-05-07 04:13:00,
2013-05-07 00:18:00,56.7,31.4,29.50,ENE,69,0.0,0.0,38,-99.99,,---,-99.99,VWS V14.01,2013-05-07 04:18:00,
2013-05-07 00:28:00,56.5,31.2,29.50,ENE,57,0.0,0.0,38,-99.99,,---,-99.99,VWS V14.01,2013-05-07 04:28:00,
2013-05-07 00:33:00,56.3,31.7,29.50,SSE,153,2.2,3.1,39,-99.99,,---,-99.99,VWS V14.01,2013-05-07 04:33:00,
2013-05-07 00:38:00,56.3,31.7,29.50,SSE,153,2.2,2.2,39,-99.99,,---,-99.99,VWS V14.01,2013-05-07 04:38:00,
2013-05-07 00:43:00,56.3,32.3,29.50,SSE,153,2.2,2.2,40,-99.99,,---,-99.99,VWS V14.01,2013-05-07 04:43:00,
2013-05-07 00:48:00,56.3,32.9,29.50,East,89,0.0,0.0,41,-99.99,,---,-99.99,VWS V14.01,2013-05-07 04:48:00,
2013-05-07 00:53:00,56.1,32.8,29.50,NE,40,3.6,3.6,41,-99.99,,---,-99.99,VWS V14.01,2013-05-07 04:53:00,
2013-05-07 00:58:00,55.9,32.6,29.50,ENE,66,0.0,3.6,41,-99.99,,---,-99.99,VWS V14.01,2013-05-07 04:58:00,
2013-05-07 01:03:00,55.9,33.8,29.50,East,94,0.0,4.9,43,-99.99,,---,-99.99,VWS V14.01,2013-05-07 05:03:00,
2013-05-07 01:08:00,55.9,33.8,29.50,NNE,17,0.0,0.0,43,-99.99,,---,-99.99,VWS V14.01,2013-05-07 05:08:00,
2013-05-07 01:13:00,55.9,34.4,29.50,East,84,4.0,4.0,44,-99.99,,---,-99.99,VWS V14.01,2013-05-07 05:13:00,
2013-05-07 01:18:00,56.1,34.5,29.50,East,82,3.6,3.6,44,-99.99,,---,-99.99,VWS V14.01,2013-05-07 05:18:00,
2013-05-07 01:23:00,56.1,34.5,29.50,East,83,3.6,4.0,44,-99.99,,---,-99.99,VWS V14.01,2013-05-07 05:23:00,
2013-05-07 01:29:00,56.1,34.5,29.50,East,93,0.0,0.0,44,-99.99,,---,-99.99,VWS V14.01,2013-05-07 05:29:00,
2013-05-07 01:34:00,56.1,35.1,29.50,East,93,0.0,0.0,45,-99.99,,---,-99.99,VWS V14.01,2013-05-07 05:34:00,
2013-05-07 01:39:00,56.1,35.1,29.50,East,99,0.0,0.0,45,-99.99,,---,-99.99,VWS V14.01,2013-05-07 05:39:00,
2013-05-07 01:44:00,56.1,35.1,29.50,ESE,118,2.2,2.2,45,-99.99,,---,-99.99,VWS V14.01,2013-05-07 05:44:00,
2013-05-07 01:49:00,56.1,35.1,29.50,ESE,110,0.0,0.0,45,-99.99,,---,-99.99,VWS V14.01,2013-05-07 05:49:00,
2013-05-07 01:54:00,56.3,35.8,29.50,ESE,106,4.0,4.0,46,-99.99,,---,-99.99,VWS V14.01,2013-05-07 05:54:00,
2013-05-07 01:59:00,56.3,35.2,29.50,ENE,67,3.6,3.6,45,-99.99,,---,-99.99,VWS V14.01,2013-05-07 05:59:00,
2013-05-07 02:04:00,56.3,34.7,29.50,ESE,106,0.0,3.6,44,-99.99,,---,-99.99,VWS V14.01,2013-05-07 06:04:00,
2013-05-07 02:09:00,56.1,34.5,29.50,NE,46,0.0,2.7,44,-99.99,,---,-99.99,VWS V14.01,2013-05-07 06:09:00,
2013-05-07 02:14:00,56.1,34.0,29.50,NE,46,0.0,0.0,43,-99.99,,---,-99.99,VWS V14.01,2013-05-07 06:14:00,
2013-05-07 02:19:00,56.1,34.0,29.50,ESE,103,5.8,5.8,43,-99.99,,---,-99.99,VWS V14.01,2013-05-07 06:19:00,
2013-05-07 02:24:00,55.8,33.0,29.50,East,81,0.0,0.0,42,-99.99,,---,-99.99,VWS V14.01,2013-05-07 06:24:00,
2013-05-07 02:29:00,55.8,33.0,29.50,SW,222,0.0,0.0,42,-99.99,,---,-99.99,VWS V14.01,2013-05-07 06:29:00,
2013-05-07 02:34:00,55.8,33.0,29.50,SW,222,0.0,0.0,42,-99.99,,---,-99.99,VWS V14.01,2013-05-07 06:34:00,
2013-05-07 02:39:00,55.8,33.0,29.50,ESE,113,0.0,0.0,42,-99.99,,---,-99.99,VWS V14.01,2013-05-07 06:39:00,
2013-05-07 02:44:00,55.8,32.4,29.50,East,80,0.0,0.0,41,-99.99,,---,-99.99,VWS V14.01,2013-05-07 06:44:00,
2013-05-07 02:49:00,55.2,31.3,29.50,East,80,0.0,0.0,40,-99.99,,---,-99.99,VWS V14.01,2013-05-07 06:49:00,
2013-05-07 02:54:00,54.9,31.0,29.50,East,80,0.0,0.0,40,-99.99,,---,-99.99,VWS V14.01,2013-05-07 06:54:00,
2013-05-07 02:59:00,54.9,31.0,29.47,East,80,0.0,0.0,40,-99.99,,---,-99.99,VWS V14.01,2013-05-07 06:59:00,
2013-05-07 03:05:00,54.9,31.0,29.47,North,2,2.2,2.2,40,-99.99,,---,-99.99,VWS V14.01,2013-05-07 07:05:00,
2013-05-07 03:10:00,54.9,31.0,29.47,NE,41,4.0,4.0,40,-99.99,,---,-99.99,VWS V14.01,2013-05-07 07:10:00,
2013-05-07 03:15:00,54.5,33.6,29.47,ENE,63,0.0,6.3,45,-99.99,,---,-99.99,VWS V14.01,2013-05-07 07:15:00,
2013-05-07 03:20:00,54.5,34.2,29.47,ENE,63,0.0,0.0,46,-99.99,,---,-99.99,VWS V14.01,2013-05-07 07:20:00,
2013-05-07 03:25:00,54.5,35.2,29.47,ENE,63,0.0,0.0,48,-99.99,,---,-99.99,VWS V14.01,2013-05-07 07:25:00,
2013-05-07 03:30:00,54.5,35.2,29.47,ENE,63,0.0,0.0,48,-99.99,,---,-99.99,VWS V14.01,2013-05-07 07:30:00,
2013-05-07 03:35:00,54.5,35.2,29.47,ENE,63,0.0,0.0,48,-99.99,,---,-99.99,VWS V14.01,2013-05-07 07:35:00,
2013-05-07 03:40:00,54.5,35.2,29.47,ENE,63,0.0,0.0,48,-99.99,,---,-99.99,VWS V14.01,2013-05-07 07:40:00,
2013-05-07 03:45:00,54.5,35.8,29.47,ENE,69,4.5,4.5,49,-99.99,,---,-99.99,VWS V14.01,2013-05-07 07:45:00,
2013-05-07 03:50:00,54.5,35.8,29.47,ENE,69,4.5,4.5,49,-99.99,,---,-99.99,VWS V14.01,2013-05-07 07:50:00,
2013-05-07 03:55:00,54.5,36.3,29.47,ENE,69,4.5,4.5,50,-99.99,,---,-99.99,VWS V14.01,2013-05-07 07:55:00,
2013-05-07 04:00:00,54.3,36.6,29.47,ENE,69,4.5,4.5,51,-99.99,,---,-99.99,VWS V14.01,2013-05-07 08:00:00,
2013-05-07 04:05:00,54.3,37.1,29.47,ENE,58,0.0,0.0,52,-99.99,,---,-99.99,VWS V14.01,2013-05-07 08:05:00,
2013-05-07 04:10:00,54.1,37.9,29.47,NE,40,2.7,3.1,54,-99.99,,---,-99.99,VWS V14.01,2013-05-07 08:10:00,
2013-05-07 04:15:00,54.1,39.3,29.47,ENE,74,2.7,5.4,57,-99.99,,---,-99.99,VWS V14.01,2013-05-07 08:15:00,
2013-05-07 04:20:00,54.1,40.1,29.47,ENE,57,6.7,6.7,59,-99.99,,---,-99.99,VWS V14.01,2013-05-07 08:20:00,
2013-05-07 04:25:00,54.0,41.7,29.47,ENE,59,6.3,6.3,63,-99.99,,---,-99.99,VWS V14.01,2013-05-07 08:25:00,
2013-05-07 04:31:00,54.0,43.3,29.47,East,79,3.1,3.6,67,-99.99,,---,-99.99,VWS V14.01,2013-05-07 08:31:00,
2013-05-07 04:36:00,53.8,43.5,29.47,NNE,24,4.5,4.5,68,-99.99,,---,-99.99,VWS V14.01,2013-05-07 08:36:00,
2013-05-07 04:41:00,54.0,44.0,29.47,East,88,2.7,4.9,69,-99.99,,---,-99.99,VWS V14.01,2013-05-07 08:41:00,
2013-05-07 04:46:00,54.0,44.4,29.47,SSE,147,4.9,5.8,70,-99.99,,---,-99.99,VWS V14.01,2013-05-07 08:46:00,
2013-05-07 04:51:00,54.0,45.2,29.47,ENE,57,4.9,4.9,72,-99.99,,---,-99.99,VWS V14.01,2013-05-07 08:51:00,
2013-05-07 04:56:00,54.0,45.5,29.47,SSE,153,3.6,3.6,73,-99.99,,---,-99.99,VWS V14.01,2013-05-07 08:56:00,
2013-05-07 05:01:00,54.1,46.0,29.47,NNW,337,3.6,3.6,74,-99.99,,---,-99.99,VWS V14.01,2013-05-07 09:01:00,
2013-05-07 05:06:00,54.1,46.4,29.47,ENE,64,0.0,0.0,75,-99.99,,---,-99.99,VWS V14.01,2013-05-07 09:06:00,
2013-05-07 05:11:00,54.1,46.8,29.47,NW,324,2.2,4.9,76,-99.99,,---,-99.99,VWS V14.01,2013-05-07 09:11:00,
2013-05-07 05:16:00,54.1,47.4,29.47,NE,56,5.8,5.8,78,-99.99,,---,-99.99,VWS V14.01,2013-05-07 09:16:00,
2013-05-07 05:21:00,54.3,48.0,29.47,NNE,20,3.6,3.6,79,-99.99,,---,-99.99,VWS V14.01,2013-05-07 09:21:00,
2013-05-07 05:26:00,54.3,48.0,29.47,ENE,64,4.0,4.0,79,-99.99,,---,-99.99,VWS V14.01,2013-05-07 09:26:00,
2013-05-07 05:31:00,54.3,48.0,29.47,East,97,0.0,0.0,79,-99.99,,---,-99.99,VWS V14.01,2013-05-07 09:31:00,
2013-05-07 05:36:00,54.5,48.8,29.47,East,81,0.0,0.0,81,-99.99,,---,-99.99,VWS V14.01,2013-05-07 09:36:00,
2013-05-07 05:41:00,54.5,48.8,29.47,East,97,4.0,4.0,81,-99.99,,---,-99.99,VWS V14.01,2013-05-07 09:41:00,
2013-05-07 05:46:00,54.5,48.8,29.47,East,97,3.1,5.4,81,-99.99,,---,-99.99,VWS V14.01,2013-05-07 09:46:00,
2013-05-07 05:51:00,54.5,48.8,29.47,East,98,2.7,3.1,81,-99.99,,---,-99.99,VWS V14.01,2013-05-07 09:51:00,
2013-05-07 05:56:00,54.5,48.8,29.47,East,79,0.0,0.0,81,-99.99,,---,-99.99,VWS V14.01,2013-05-07 09:56:00,
2013-05-07 06:02:00,54.7,49.3,29.47,ENE,69,0.0,4.0,82,-99.99,,---,-99.99,VWS V14.01,2013-05-07 10:02:00,
2013-05-07 06:07:00,54.7,49.3,29.47,East,80,0.0,2.2,82,-99.99,,---,-99.99,VWS V14.01,2013-05-07 10:07:00,
2013-05-07 06:12:00,54.9,49.5,29.47,South,172,2.2,2.2,82,-99.99,,---,-99.99,VWS V14.01,2013-05-07 10:12:00,
2013-05-07 06:17:00,54.9,49.8,29.50,East,81,0.0,3.1,83,-99.99,,---,-99.99,VWS V14.01,2013-05-07 10:17:00,
2013-05-07 06:22:00,55.0,50.0,29.50,East,81,0.0,2.2,83,-99.99,,---,-99.99,VWS V14.01,2013-05-07 10:22:00,
2013-05-07 06:27:00,55.0,50.0,29.50,ENE,70,3.6,3.6,83,-99.99,,---,-99.99,VWS V14.01,2013-05-07 10:27:00,
2013-05-07 06:32:00,55.0,50.0,29.50,East,80,0.0,0.0,83,-99.99,,---,-99.99,VWS V14.01,2013-05-07 10:32:00,
2013-05-07 06:37:00,55.2,50.2,29.50,East,98,2.7,2.7,83,-99.99,,---,-99.99,VWS V14.01,2013-05-07 10:37:00,
2013-05-07 06:42:00,55.2,50.2,29.50,ENE,72,0.0,0.0,83,-99.99,,---,-99.99,VWS V14.01,2013-05-07 10:42:00,
2013-05-07 06:47:00,55.2,50.2,29.47,ENE,76,4.0,4.0,83,-99.99,,---,-99.99,VWS V14.01,2013-05-07 10:47:00,
2013-05-07 06:52:00,55.2,50.2,29.47,ENE,78,0.0,3.6,83,-99.99,,---,-99.99,VWS V14.01,2013-05-07 10:52:00,
2013-05-07 06:57:00,55.4,50.3,29.47,North,357,0.0,3.1,83,-99.99,,---,-99.99,VWS V14.01,2013-05-07 10:57:00,
2013-05-07 07:02:00,55.4,50.3,29.47,ENE,63,4.9,4.9,83,-99.99,,---,-99.99,VWS V14.01,2013-05-07 11:02:00,
2013-05-07 07:07:00,55.6,50.8,29.47,NE,46,7.6,7.6,84,-99.99,,---,-99.99,VWS V14.01,2013-05-07 11:07:00,
2013-05-07 07:12:00,55.6,50.8,29.47,NE,47,2.7,3.1,84,-99.99,,---,-99.99,VWS V14.01,2013-05-07 11:12:00,
2013-05-07 07:17:00,55.8,51.0,29.47,SE,146,2.2,3.6,84,-99.99,,---,-99.99,VWS V14.01,2013-05-07 11:17:00,
2013-05-07 07:22:00,55.8,51.0,29.47,East,81,2.7,5.4,84,-99.99,,---,-99.99,VWS V14.01,2013-05-07 11:22:00,
2013-05-07 07:28:00,55.9,51.5,29.47,East,87,3.6,5.8,85,-99.99,,---,-99.99,VWS V14.01,2013-05-07 11:28:00,
2013-05-07 07:33:00,55.9,51.5,29.50,SW,225,2.7,5.4,85,-99.99,,---,-99.99,VWS V14.01,2013-05-07 11:33:00,
2013-05-07 07:38:00,55.9,51.5,29.50,ENE,66,4.0,5.4,85,-99.99,,---,-99.99,VWS V14.01,2013-05-07 11:38:00,
2013-05-07 07:43:00,56.1,52.0,29.50,ESE,105,3.6,3.6,86,-99.99,,---,-99.99,VWS V14.01,2013-05-07 11:43:00,
2013-05-07 07:48:00,56.1,52.0,29.50,ENE,69,3.1,6.3,86,-99.99,,---,-99.99,VWS V14.01,2013-05-07 11:48:00,
2013-05-07 07:53:00,56.1,52.0,29.50,ESE,113,0.0,0.0,86,-99.99,,---,-99.99,VWS V14.01,2013-05-07 11:53:00,
2013-05-07 07:58:00,56.1,52.0,29.50,ENE,62,4.0,5.8,86,-99.99,,---,-99.99,VWS V14.01,2013-05-07 11:58:00,
2013-05-07 08:03:00,56.1,52.0,29.50,NE,54,7.6,7.6,86,-99.99,,---,-99.99,VWS V14.01,2013-05-07 12:03:00,
2013-05-07 08:08:00,56.1,52.0,29.50,NE,48,3.1,3.1,86,-99.99,,---,-99.99,VWS V14.01,2013-05-07 12:08:00,
2013-05-07 08:13:00,56.3,52.2,29.50,ENE,57,8.1,8.1,86,-99.99,,---,-99.99,VWS V14.01,2013-05-07 12:13:00,
2013-05-07 08:18:00,56.3,52.2,29.50,SE,132,4.9,5.4,86,-99.99,,---,-99.99,VWS V14.01,2013-05-07 12:18:00,
2013-05-07 08:23:00,56.5,52.0,29.50,ENE,71,5.8,5.8,85,-99.99,,---,-99.99,VWS V14.01,2013-05-07 12:23:00,
2013-05-07 08:29:00,56.7,52.2,29.50,East,98,5.8,5.8,85,-99.99,,---,-99.99,VWS V14.01,2013-05-07 12:29:00,
2013-05-07 08:34:00,56.7,52.2,29.50,NE,44,5.4,5.8,85,-99.99,,---,-99.99,VWS V14.01,2013-05-07 12:34:00,
2013-05-07 08:40:00,56.8,52.4,29.50,ESE,107,4.0,4.0,85,-99.99,,---,-99.99,VWS V14.01,2013-05-07 12:40:00,
2013-05-07 08:45:00,57.2,52.1,29.50,NE,42,3.1,5.8,83,-99.99,,---,-99.99,VWS V14.01,2013-05-07 12:45:00,
2013-05-07 08:50:00,57.4,51.9,29.50,ENE,70,4.0,5.8,82,-99.99,,---,-99.99,VWS V14.01,2013-05-07 12:50:00,
2013-05-07 08:55:00,57.6,51.8,29.50,ENE,58,4.9,7.6,81,-99.99,,---,-99.99,VWS V14.01,2013-05-07 12:55:00,
2013-05-07 09:00:00,57.7,50.2,29.50,NE,38,5.4,5.4,76,-99.99,,---,-99.99,VWS V14.01,2013-05-07 13:00:00,
2013-05-07 09:05:00,57.9,49.3,29.50,NE,52,4.0,5.4,73,-99.99,,---,-99.99,VWS V14.01,2013-05-07 13:05:00,
2013-05-07 09:10:00,58.3,48.9,29.50,ENE,58,4.0,5.4,71,-99.99,,---,-99.99,VWS V14.01,2013-05-07 13:10:00,
2013-05-07 09:15:00,58.5,47.6,29.50,NE,46,0.0,4.9,67,-99.99,,---,-99.99,VWS V14.01,2013-05-07 13:15:00,
2013-05-07 09:20:00,58.6,46.1,29.50,ENE,61,4.0,7.2,63,-99.99,,---,-99.99,VWS V14.01,2013-05-07 13:20:00,
2013-05-07 09:25:00,58.5,43.8,29.50,NE,53,6.3,6.3,58,-99.99,,---,-99.99,VWS V14.01,2013-05-07 13:25:00,
2013-05-07 09:30:00,58.8,43.2,29.50,East,82,5.4,5.4,56,-99.99,,---,-99.99,VWS V14.01,2013-05-07 13:30:00,
2013-05-07 09:35:00,59.2,42.1,29.50,ENE,59,4.0,7.6,53,-99.99,,---,-99.99,VWS V14.01,2013-05-07 13:35:00,
2013-05-07 09:40:00,59.4,40.7,29.50,NE,44,6.7,8.1,50,-99.99,,---,-99.99,VWS V14.01,2013-05-07 13:40:00,
2013-05-07 09:46:00,59.7,40.0,29.50,SSE,154,6.3,6.3,48,-99.99,,---,-99.99,VWS V14.01,2013-05-07 13:46:00,
2013-05-07 09:51:00,60.3,38.8,29.50,ESE,105,8.1,8.1,45,-99.99,,---,-99.99,VWS V14.01,2013-05-07 13:51:00,
2013-05-07 09:56:00,60.4,38.4,29.50,North,349,3.1,8.1,44,-99.99,,---,-99.99,VWS V14.01,2013-05-07 13:56:00,
2013-05-07 10:01:00,61.0,38.3,29.50,SE,138,6.3,6.3,43,-99.99,,---,-99.99,VWS V14.01,2013-05-07 14:01:00,
2013-05-07 10:06:00,61.2,35.4,29.50,East,82,6.3,6.3,38,-99.99,,---,-99.99,VWS V14.01,2013-05-07 14:06:00,
2013-05-07 10:11:00,61.7,34.5,29.50,East,82,6.3,6.3,36,-99.99,,---,-99.99,VWS V14.01,2013-05-07 14:11:00,
2013-05-07 10:16:00,61.7,34.5,29.50,East,82,6.3,6.3,36,-99.99,,---,-99.99,VWS V14.01,2013-05-07 14:16:00,
2013-05-07 10:21:00,61.7,34.5,29.50,East,82,6.3,6.3,36,-99.99,,---,-99.99,VWS V14.01,2013-05-07 14:21:00,
2013-05-07 10:26:00,61.5,34.3,29.50,East,82,6.3,6.3,36,-99.99,,---,-99.99,VWS V14.01,2013-05-07 14:26:00,
2013-05-07 10:31:00,61.3,35.5,29.50,ENE,60,3.1,5.4,38,-99.99,,---,-99.99,VWS V14.01,2013-05-07 14:31:00,
2013-05-07 10:36:00,61.7,35.9,29.50,ENE,60,3.1,3.1,38,-99.99,,---,-99.99,VWS V14.01,2013-05-07 14:36:00,
2013-05-07 10:41:00,61.9,35.3,29.50,ENE,60,3.1,3.1,37,-99.99,,---,-99.99,VWS V14.01,2013-05-07 14:41:00,
2013-05-07 10:46:00,62.1,35.5,29.50,NE,35,5.8,5.8,37,-99.99,,---,-99.99,VWS V14.01,2013-05-07 14:46:00,
2013-05-07 10:52:00,62.6,33.9,29.50,ENE,63,0.0,3.1,34,-99.99,,---,-99.99,VWS V14.01,2013-05-07 14:52:00,
2013-05-07 10:57:00,63.0,34.2,29.50,ENE,71,7.2,7.2,34,-99.99,,---,-99.99,VWS V14.01,2013-05-07 14:57:00,
2013-05-07 11:02:00,63.0,33.4,29.50,ENE,71,7.2,7.2,33,-99.99,,---,-99.99,VWS V14.01,2013-05-07 15:02:00,
2013-05-07 11:07:00,63.1,34.3,29.50,SSW,200,4.0,6.3,34,-99.99,,---,-99.99,VWS V14.01,2013-05-07 15:07:00,
2013-05-07 11:12:00,63.9,34.2,29.50,ESE,111,5.8,5.8,33,-99.99,,---,-99.99,VWS V14.01,2013-05-07 15:12:00,
2013-05-07 11:17:00,64.4,30.6,29.50,East,85,10.1,10.1,28,-99.99,,---,-99.99,VWS V14.01,2013-05-07 15:17:00,
2013-05-07 11:22:00,64.9,30.2,29.50,ESE,114,6.3,6.3,27,-99.99,,---,-99.99,VWS V14.01,2013-05-07 15:22:00,
2013-05-07 11:27:00,64.9,30.2,29.50,ENE,57,4.9,6.3,27,-99.99,,---,-99.99,VWS V14.01,2013-05-07 15:27:00,
2013-05-07 11:32:00,64.9,29.3,29.50,ENE,71,4.9,8.7,26,-99.99,,---,-99.99,VWS V14.01,2013-05-07 15:32:00,
2013-05-07 11:37:00,65.1,28.5,29.50,East,98,8.3,8.3,25,-99.99,,---,-99.99,VWS V14.01,2013-05-07 15:37:00,
2013-05-07 11:42:00,65.3,28.6,29.50,NE,55,6.3,6.3,25,-99.99,,---,-99.99,VWS V14.01,2013-05-07 15:42:00,
2013-05-07 11:47:00,65.1,29.4,29.50,WSW,252,3.6,7.6,26,-99.99,,---,-99.99,VWS V14.01,2013-05-07 15:47:00,
2013-05-07 11:52:00,65.5,28.8,29.50,ESE,120,5.4,8.7,25,-99.99,,---,-99.99,VWS V14.01,2013-05-07 15:52:00,
2013-05-07 11:58:00,65.8,29.1,29.50,East,86,5.8,5.8,25,-99.99,,---,-99.99,VWS V14.01,2013-05-07 15:58:00,
2013-05-07 12:03:00,66.0,28.2,29.50,East,96,6.3,6.3,24,-99.99,,---,-99.99,VWS V14.01,2013-05-07 16:03:00,
2013-05-07 12:08:00,66.4,28.5,29.50,SE,131,5.8,8.7,24,-99.99,,---,-99.99,VWS V14.01,2013-05-07 16:08:00,
2013-05-07 12:13:00,67.5,28.4,29.50,East,96,6.7,6.7,23,-99.99,,---,-99.99,VWS V14.01,2013-05-07 16:13:00,
2013-05-07 12:18:00,67.8,28.7,29.50,East,97,10.1,10.5,23,-99.99,,---,-99.99,VWS V14.01,2013-05-07 16:18:00,
2013-05-07 12:23:00,68.0,25.5,29.50,SW,219,5.8,5.8,20,-99.99,,---,-99.99,VWS V14.01,2013-05-07 16:23:00,
2013-05-07 12:28:00,68.0,25.5,29.50,ESE,115,5.4,10.1,20,-99.99,,---,-99.99,VWS V14.01,2013-05-07 16:28:00,
2013-05-07 12:33:00,68.0,25.5,29.50,East,88,4.0,5.8,20,-99.99,,---,-99.99,VWS V14.01,2013-05-07 16:33:00,
2013-05-07 12:38:00,68.5,28.2,29.50,East,87,5.4,10.5,22,-99.99,,---,-99.99,VWS V14.01,2013-05-07 16:38:00,
2013-05-07 12:43:00,69.1,26.4,29.50,East,90,5.8,8.3,20,-99.99,,---,-99.99,VWS V14.01,2013-05-07 16:43:00,
2013-05-07 12:48:00,69.3,22.6,29.50,East,85,3.6,5.8,17,-99.99,,---,-99.99,VWS V14.01,2013-05-07 16:48:00,
2013-05-07 12:53:00,69.3,22.6,29.50,ESE,102,2.7,2.7,17,-99.99,,---,-99.99,VWS V14.01,2013-05-07 16:53:00,
2013-05-07 12:58:00,69.6,26.8,29.50,East,85,4.0,5.8,20,-99.99,,---,-99.99,VWS V14.01,2013-05-07 16:58:00,
2013-05-07 13:03:00,70.0,23.2,29.47,WSW,252,3.6,7.2,17,-99.99,,---,-99.99,VWS V14.01,2013-05-07 17:03:00,
2013-05-07 13:13:00,70.0,18.6,29.47,West,268,0.0,7.2,14,-99.99,,---,-99.99,VWS V14.01,2013-05-07 17:13:00,
2013-05-07 13:18:00,70.3,18.9,29.47,ESE,108,10.1,10.1,14,-99.99,,---,-99.99,VWS V14.01,2013-05-07 17:18:00,
2013-05-07 13:23:00,70.2,18.8,29.47,SE,137,3.6,4.0,14,-99.99,,---,-99.99,VWS V14.01,2013-05-07 17:23:00,
2013-05-07 13:28:00,70.3,18.9,29.47,East,94,3.1,5.8,14,-99.99,,---,-99.99,VWS V14.01,2013-05-07 17:28:00,
2013-05-07 13:33:00,71.1,19.5,29.47,SE,139,8.7,8.7,14,-99.99,,---,-99.99,VWS V14.01,2013-05-07 17:33:00,
2013-05-07 13:39:00,70.9,15.8,29.47,ENE,75,11.9,11.9,12,-99.99,,---,-99.99,VWS V14.01,2013-05-07 17:39:00,
2013-05-07 13:44:00,70.3,18.9,29.47,ESE,114,12.8,12.8,14,-99.99,,---,-99.99,VWS V14.01,2013-05-07 17:44:00,
2013-05-07 13:49:00,70.5,15.5,29.47,NE,36,3.6,8.3,12,-99.99,,---,-99.99,VWS V14.01,2013-05-07 17:49:00,
2013-05-07 13:54:00,70.7,15.6,29.47,ESE,103,11.4,14.5,12,-99.99,,---,-99.99,VWS V14.01,2013-05-07 17:54:00,
2013-05-07 13:59:00,70.7,15.6,29.44,NNE,27,8.3,11.9,12,-99.99,,---,-99.99,VWS V14.01,2013-05-07 17:59:00,
2013-05-07 14:04:00,70.7,15.6,29.44,SSW,202,6.3,10.1,12,-99.99,,---,-99.99,VWS V14.01,2013-05-07 18:04:00,
2013-05-07 14:09:00,71.2,16.1,29.44,East,95,8.7,11.0,12,-99.99,,---,-99.99,VWS V14.01,2013-05-07 18:09:00,
2013-05-07 14:15:00,72.1,14.8,29.44,ESE,121,10.5,13.2,11,-99.99,,---,-99.99,VWS V14.01,2013-05-07 18:15:00,
2013-05-07 14:20:00,72.0,14.6,29.44,SE,133,8.1,9.2,11,-99.99,,---,-99.99,VWS V14.01,2013-05-07 18:20:00,
2013-05-07 14:25:00,71.8,14.5,29.44,SE,139,8.1,8.1,11,-99.99,,---,-99.99,VWS V14.01,2013-05-07 18:25:00,
2013-05-07 14:30:00,70.7,19.2,29.44,East,84,8.7,11.0,14,-99.99,,---,-99.99,VWS V14.01,2013-05-07 18:30:00,
2013-05-07 14:35:00,69.1,30.8,29.44,East,84,10.5,10.5,24,-99.99,,---,-99.99,VWS V14.01,2013-05-07 18:35:00,
2013-05-07 14:40:00,67.8,35.3,29.44,East,92,11.0,11.0,30,-99.99,,---,-99.99,VWS V14.01,2013-05-07 18:40:00,
2013-05-07 14:45:00,67.8,35.3,29.44,East,96,10.1,10.1,30,-99.99,,---,-99.99,VWS V14.01,2013-05-07 18:45:00,
2013-05-07 14:50:00,68.2,37.2,29.44,ESE,108,8.7,8.7,32,-99.99,,---,-99.99,VWS V14.01,2013-05-07 18:50:00,
2013-05-07 14:55:00,68.5,35.9,29.44,SE,137,6.3,6.3,30,-99.99,,---,-99.99,VWS V14.01,2013-05-07 18:55:00,
2013-05-07 15:00:00,68.5,31.4,29.44,ESE,119,8.1,8.3,25,-99.99,,---,-99.99,VWS V14.01,2013-05-07 19:00:00,
2013-05-07 15:05:00,68.5,30.4,29.44,ESE,110,10.5,10.5,24,-99.99,,---,-99.99,VWS V14.01,2013-05-07 19:05:00,
2013-05-07 15:10:00,68.7,30.5,29.44,SE,130,10.1,12.8,24,-99.99,,---,-99.99,VWS V14.01,2013-05-07 19:10:00,
2013-05-07 15:16:00,69.3,28.8,29.44,SE,141,11.0,11.0,22,-99.99,,---,-99.99,VWS V14.01,2013-05-07 19:16:00,
2013-05-07 15:21:00,69.4,31.1,29.44,ESE,109,8.1,8.1,24,-99.99,,---,-99.99,VWS V14.01,2013-05-07 19:21:00,
2013-05-07 15:26:00,69.6,29.1,29.44,ESE,122,3.1,6.3,22,-99.99,,---,-99.99,VWS V14.01,2013-05-07 19:26:00,
2013-05-07 15:31:00,70.0,29.4,29.44,East,79,12.8,12.8,22,-99.99,,---,-99.99,VWS V14.01,2013-05-07 19:31:00,
2013-05-07 15:36:00,70.0,18.6,29.44,ESE,112,8.3,12.8,14,-99.99,,---,-99.99,VWS V14.01,2013-05-07 19:36:00,
2013-05-07 15:41:00,70.5,23.6,29.44,SE,125,6.3,7.6,17,-99.99,,---,-99.99,VWS V14.01,2013-05-07 19:41:00,
2013-05-07 15:46:00,70.9,23.9,29.44,ESE,119,5.4,6.3,17,-99.99,,---,-99.99,VWS V14.01,2013-05-07 19:46:00,
2013-05-07 15:51:00,70.9,19.4,29.44,ESE,104,8.3,8.7,14,-99.99,,---,-99.99,VWS V14.01,2013-05-07 19:51:00,
2013-05-07 15:56:00,70.5,19.1,29.44,ESE,104,8.7,8.7,14,-99.99,,---,-99.99,VWS V14.01,2013-05-07 19:56:00,
2013-05-07 16:01:00,70.5,23.6,29.41,ESE,105,7.2,8.7,17,-99.99,,---,-99.99,VWS V14.01,2013-05-07 20:01:00,
2013-05-07 16:06:00,70.2,15.2,29.41,East,98,8.3,8.3,12,-99.99,,---,-99.99,VWS V14.01,2013-05-07 20:06:00,
2013-05-07 16:11:00,69.8,18.5,29.41,ESE,104,8.3,8.3,14,-99.99,,---,-99.99,VWS V14.01,2013-05-07 20:11:00,
2013-05-07 16:16:00,69.6,20.0,29.41,East,99,8.1,8.7,15,-99.99,,---,-99.99,VWS V14.01,2013-05-07 20:16:00,
2013-05-07 16:21:00,69.3,19.7,29.41,ESE,114,15.0,15.0,15,-99.99,,---,-99.99,VWS V14.01,2013-05-07 20:21:00,
2013-05-07 16:27:00,69.1,22.5,29.41,ESE,115,13.2,13.2,17,-99.99,,---,-99.99,VWS V14.01,2013-05-07 20:27:00,
2013-05-07 16:32:00,69.1,22.5,29.41,ESE,108,12.3,12.3,17,-99.99,,---,-99.99,VWS V14.01,2013-05-07 20:32:00,
2013-05-07 16:37:00,68.9,22.3,29.41,SE,143,8.3,10.5,17,-99.99,,---,-99.99,VWS V14.01,2013-05-07 20:37:00,
2013-05-07 16:42:00,68.9,26.2,29.41,East,99,3.1,5.4,20,-99.99,,---,-99.99,VWS V14.01,2013-05-07 20:42:00,
2013-05-07 16:47:00,69.4,29.0,29.41,East,88,10.1,14.1,22,-99.99,,---,-99.99,VWS V14.01,2013-05-07 20:47:00,
2013-05-07 16:52:00,69.1,26.4,29.41,ESE,116,13.2,14.5,20,-99.99,,---,-99.99,VWS V14.01,2013-05-07 20:52:00,
2013-05-07 16:57:00,68.5,38.3,29.41,East,89,10.1,10.1,33,-99.99,,---,-99.99,VWS V14.01,2013-05-07 20:57:00,
2013-05-07 17:02:00,67.1,37.8,29.44,ESE,122,8.7,8.7,34,-99.99,,---,-99.99,VWS V14.01,2013-05-07 21:02:00,
2013-05-07 17:07:00,66.6,39.5,29.44,SE,145,8.1,8.1,37,-99.99,,---,-99.99,VWS V14.01,2013-05-07 21:07:00,
2013-05-07 17:12:00,66.4,40.0,29.44,East,96,8.1,8.1,38,-99.99,,---,-99.99,VWS V14.01,2013-05-07 21:12:00,
2013-05-07 17:17:00,66.6,40.9,29.44,East,87,8.1,8.1,39,-99.99,,---,-99.99,VWS V14.01,2013-05-07 21:17:00,
2013-05-07 17:23:00,66.9,39.1,29.44,ESE,109,10.1,10.1,36,-99.99,,---,-99.99,VWS V14.01,2013-05-07 21:23:00,
2013-05-07 17:28:00,66.9,35.3,29.44,ENE,74,11.0,11.0,31,-99.99,,---,-99.99,VWS V14.01,2013-05-07 21:28:00,
2013-05-07 17:33:00,67.1,35.5,29.41,East,86,8.3,11.9,31,-99.99,,---,-99.99,VWS V14.01,2013-05-07 21:33:00,
2013-05-07 17:38:00,67.1,32.0,29.41,East,87,8.3,8.3,27,-99.99,,---,-99.99,VWS V14.01,2013-05-07 21:38:00,
2013-05-07 17:43:00,66.9,30.0,29.41,SSE,162,9.2,10.1,25,-99.99,,---,-99.99,VWS V14.01,2013-05-07 21:43:00,
2013-05-07 17:48:00,66.7,30.8,29.41,East,97,10.5,10.5,26,-99.99,,---,-99.99,VWS V14.01,2013-05-07 21:48:00,
2013-05-07 17:53:00,66.7,30.8,29.41,East,86,8.1,8.1,26,-99.99,,---,-99.99,VWS V14.01,2013-05-07 21:53:00,
2013-05-07 17:58:00,66.6,31.6,29.41,ESE,102,6.7,7.6,27,-99.99,,---,-99.99,VWS V14.01,2013-05-07 21:58:00,
2013-05-07 18:03:00,66.4,31.4,29.41,ESE,118,4.9,10.5,27,-99.99,,---,-99.99,VWS V14.01,2013-05-07 22:03:00,
2013-05-07 18:08:00,66.4,33.2,29.41,ENE,59,5.8,6.7,29,-99.99,,---,-99.99,VWS V14.01,2013-05-07 22:08:00,
2013-05-07 18:13:00,66.4,34.0,29.41,SE,133,4.0,4.9,30,-99.99,,---,-99.99,VWS V14.01,2013-05-07 22:13:00,
2013-05-07 18:18:00,66.4,34.0,29.41,ENE,63,6.3,8.1,30,-99.99,,---,-99.99,VWS V14.01,2013-05-07 22:18:00,
2013-05-07 18:23:00,66.4,33.2,29.41,ENE,60,7.6,7.6,29,-99.99,,---,-99.99,VWS V14.01,2013-05-07 22:23:00,
2013-05-07 18:28:00,66.6,35.0,29.41,ESE,102,4.9,5.8,31,-99.99,,---,-99.99,VWS V14.01,2013-05-07 22:28:00,
2013-05-07 18:34:00,66.6,35.8,29.41,SE,124,3.6,8.1,32,-99.99,,---,-99.99,VWS V14.01,2013-05-07 22:34:00,
2013-05-07 18:39:00,66.4,36.4,29.41,ENE,70,5.4,6.3,33,-99.99,,---,-99.99,VWS V14.01,2013-05-07 22:39:00,
2013-05-07 18:44:00,66.4,36.4,29.41,ESE,116,5.8,5.8,33,-99.99,,---,-99.99,VWS V14.01,2013-05-07 22:44:00,
2013-05-07 18:49:00,66.4,36.4,29.41,ENE,75,5.8,10.1,33,-99.99,,---,-99.99,VWS V14.01,2013-05-07 22:49:00,
2013-05-07 18:54:00,66.4,36.4,29.41,South,190,3.6,3.6,33,-99.99,,---,-99.99,VWS V14.01,2013-05-07 22:54:00,
2013-05-07 18:59:00,66.4,36.4,29.41,East,97,3.1,6.3,33,-99.99,,---,-99.99,VWS V14.01,2013-05-07 22:59:00,
2013-05-07 19:04:00,66.2,36.3,29.41,East,82,7.6,7.6,33,-99.99,,---,-99.99,VWS V14.01,2013-05-07 23:04:00,
2013-05-07 19:12:00,66.0,36.9,29.41,ENE,69,6.3,6.3,34,-99.99,,---,-99.99,VWS V14.01,2013-05-07 23:12:00,
2013-05-07 19:18:00,66.0,36.9,29.41,NE,46,2.2,2.7,34,-99.99,,---,-99.99,VWS V14.01,2013-05-07 23:18:00,
2013-05-07 19:23:00,66.0,36.9,29.41,NNE,33,3.6,3.6,34,-99.99,,---,-99.99,VWS V14.01,2013-05-07 23:23:00,
2013-05-07 19:28:00,65.8,36.7,29.41,ENE,61,5.4,5.4,34,-99.99,,---,-99.99,VWS V14.01,2013-05-07 23:28:00,
2013-05-07 19:33:00,65.8,37.5,29.41,East,96,0.0,0.0,35,-99.99,,---,-99.99,VWS V14.01,2013-05-07 23:33:00,
2013-05-07 19:38:00,65.7,37.3,29.41,East,99,2.7,2.7,35,-99.99,,---,-99.99,VWS V14.01,2013-05-07 23:38:00,
2013-05-07 19:43:00,65.7,36.6,29.41,ENE,65,3.6,3.6,34,-99.99,,---,-99.99,VWS V14.01,2013-05-07 23:43:00,
2013-05-07 19:48:00,65.7,36.6,29.44,NNE,27,5.8,5.8,34,-99.99,,---,-99.99,VWS V14.01,2013-05-07 23:48:00,
2013-05-07 19:53:00,65.5,36.4,29.44,South,174,0.0,4.9,34,-99.99,,---,-99.99,VWS V14.01,2013-05-07 23:53:00,
2013-05-07 20:04:00,65.5,36.4,29.44,ESE,108,5.4,5.4,34,-99.99,,---,-99.99,VWS V14.01,2013-05-08 00:04:00,
2013-05-07 20:09:00,65.5,36.4,29.44,ENE,75,4.9,4.9,34,-99.99,,---,-99.99,VWS V14.01,2013-05-08 00:09:00,
2013-05-07 20:14:00,65.5,36.4,29.44,NE,46,5.8,6.3,34,-99.99,,---,-99.99,VWS V14.01,2013-05-08 00:14:00,
2013-05-07 20:19:00,65.3,36.2,29.44,ENE,78,4.5,5.4,34,-99.99,,---,-99.99,VWS V14.01,2013-05-08 00:19:00,
2013-05-07 20:24:00,65.3,36.2,29.44,ENE,69,6.3,6.7,34,-99.99,,---,-99.99,VWS V14.01,2013-05-08 00:24:00,
2013-05-07 20:30:00,65.5,36.4,29.44,ESE,102,11.0,11.0,34,-99.99,,---,-99.99,VWS V14.01,2013-05-08 00:30:00,
2013-05-07 20:35:00,65.3,36.2,29.44,ESE,107,3.1,7.2,34,-99.99,,---,-99.99,VWS V14.01,2013-05-08 00:35:00,
2013-05-07 20:40:00,65.3,36.2,29.44,East,88,3.6,8.7,34,-99.99,,---,-99.99,VWS V14.01,2013-05-08 00:40:00,
2013-05-07 20:45:00,65.3,36.2,29.44,East,82,5.8,7.6,34,-99.99,,---,-99.99,VWS V14.01,2013-05-08 00:45:00,
2013-05-07 20:50:00,65.3,36.2,29.44,ESE,114,2.7,2.7,34,-99.99,,---,-99.99,VWS V14.01,2013-05-08 00:50:00,
2013-05-07 20:55:00,65.1,36.1,29.44,ENE,73,8.3,8.3,34,-99.99,,---,-99.99,VWS V14.01,2013-05-08 00:55:00,
2013-05-07 21:00:00,65.1,36.8,29.44,East,79,5.4,5.4,35,-99.99,,---,-99.99,VWS V14.01,2013-05-08 01:00:00,
2013-05-07 21:05:00,64.9,36.7,29.44,ESE,103,0.0,0.0,35,-99.99,,---,-99.99,VWS V14.01,2013-05-08 01:05:00,
2013-05-07 21:10:00,64.8,37.2,29.44,ENE,61,4.9,5.4,36,-99.99,,---,-99.99,VWS V14.01,2013-05-08 01:10:00,
2013-05-07 21:16:00,64.8,37.2,29.41,SE,127,3.1,6.3,36,-99.99,,---,-99.99,VWS V14.01,2013-05-08 01:16:00,
2013-05-07 21:21:00,64.8,37.9,29.41,ESE,108,5.8,6.3,37,-99.99,,---,-99.99,VWS V14.01,2013-05-08 01:21:00,
2013-05-07 21:26:00,64.8,37.2,29.41,ENE,75,4.5,4.5,36,-99.99,,---,-99.99,VWS V14.01,2013-05-08 01:26:00,
2013-05-07 21:31:00,64.8,37.2,29.44,ESE,106,2.7,2.7,36,-99.99,,---,-99.99,VWS V14.01,2013-05-08 01:31:00,
2013-05-07 21:36:00,64.6,37.0,29.44,SE,129,4.9,4.9,36,-99.99,,---,-99.99,VWS V14.01,2013-05-08 01:36:00,
2013-05-07 21:41:00,64.6,37.8,29.44,NE,52,3.1,4.5,37,-99.99,,---,-99.99,VWS V14.01,2013-05-08 01:41:00,
2013-05-07 21:46:00,64.6,37.8,29.44,ESE,105,8.1,8.3,37,-99.99,,---,-99.99,VWS V14.01,2013-05-08 01:46:00,
2013-05-07 21:52:00,64.6,37.0,29.44,SSW,193,3.6,5.8,36,-99.99,,---,-99.99,VWS V14.01,2013-05-08 01:52:00,
2013-05-07 21:57:00,64.6,37.0,29.44,SSE,153,4.0,4.0,36,-99.99,,---,-99.99,VWS V14.01,2013-05-08 01:57:00,
2013-05-07 22:02:00,64.4,36.9,29.44,East,79,5.8,8.1,36,-99.99,,---,-99.99,VWS V14.01,2013-05-08 02:02:00,
2013-05-07 22:07:00,64.4,36.9,29.44,East,85,6.3,6.7,36,-99.99,,---,-99.99,VWS V14.01,2013-05-08 02:07:00,
2013-05-07 22:12:00,64.4,36.9,29.44,SSE,163,7.6,7.6,36,-99.99,,---,-99.99,VWS V14.01,2013-05-08 02:12:00,
2013-05-07 22:17:00,64.4,36.9,29.44,ENE,72,3.1,8.1,36,-99.99,,---,-99.99,VWS V14.01,2013-05-08 02:17:00,
2013-05-07 22:22:00,64.2,37.4,29.44,SSE,159,4.0,6.3,37,-99.99,,---,-99.99,VWS V14.01,2013-05-08 02:22:00,
2013-05-07 22:27:00,64.0,37.3,29.44,NE,51,3.6,5.4,37,-99.99,,---,-99.99,VWS V14.01,2013-05-08 02:27:00,
2013-05-07 22:32:00,64.0,37.9,29.44,ESE,115,3.6,3.6,38,-99.99,,---,-99.99,VWS V14.01,2013-05-08 02:32:00,
2013-05-07 22:37:00,64.0,37.3,29.44,East,79,4.0,6.3,37,-99.99,,---,-99.99,VWS V14.01,2013-05-08 02:37:00,
2013-05-07 22:42:00,64.0,37.3,29.44,NE,55,3.6,3.6,37,-99.99,,---,-99.99,VWS V14.01,2013-05-08 02:42:00,
2013-05-07 22:48:00,63.9,37.1,29.44,East,92,4.0,4.0,37,-99.99,,---,-99.99,VWS V14.01,2013-05-08 02:48:00,
2013-05-07 22:53:00,64.0,39.2,29.44,SE,137,6.3,8.7,40,-99.99,,---,-99.99,VWS V14.01,2013-05-08 02:53:00,
2013-05-07 22:58:00,63.9,40.3,29.44,SSE,151,10.5,10.5,42,-99.99,,---,-99.99,VWS V14.01,2013-05-08 02:58:00,
2013-05-07 23:03:00,63.5,41.8,29.44,SSE,155,11.0,11.0,45,-99.99,,---,-99.99,VWS V14.01,2013-05-08 03:03:00,
2013-05-07 23:08:00,63.1,43.7,29.44,ESE,103,8.1,8.1,49,-99.99,,---,-99.99,VWS V14.01,2013-05-08 03:08:00,
2013-05-07 23:13:00,63.0,46.1,29.44,East,90,7.6,8.3,54,-99.99,,---,-99.99,VWS V14.01,2013-05-08 03:13:00,
2013-05-07 23:18:00,62.8,45.9,29.44,ESE,108,6.7,6.7,54,-99.99,,---,-99.99,VWS V14.01,2013-05-08 03:18:00,
2013-05-07 23:23:00,62.6,46.2,29.44,East,96,5.4,5.4,55,-99.99,,---,-99.99,VWS V14.01,2013-05-08 03:23:00,
2013-05-07 23:28:00,62.4,46.5,29.44,ENE,70,4.0,4.0,56,-99.99,,---,-99.99,VWS V14.01,2013-05-08 03:28:00,
2013-05-07 23:33:00,62.4,47.5,29.44,ENE,70,4.0,4.0,58,-99.99,,---,-99.99,VWS V14.01,2013-05-08 03:33:00,
2013-05-07 23:38:00,62.4,47.5,29.44,ENE,70,4.0,4.0,58,-99.99,,---,-99.99,VWS V14.01,2013-05-08 03:38:00,
2013-05-07 23:43:00,62.2,47.3,29.44,ENE,70,4.0,4.0,58,-99.99,,---,-99.99,VWS V14.01,2013-05-08 03:43:00,
2013-05-07 23:48:00,62.2,47.3,29.44,ENE,70,4.0,4.0,58,-99.99,,---,-99.99,VWS V14.01,2013-05-08 03:48:00,
2013-05-07 23:53:00,62.1,47.1,29.44,ENE,67,3.1,5.4,58,-99.99,,---,-99.99,VWS V14.01,2013-05-08 03:53:00,
2013-05-07 23:58:00,61.9,47.0,29.44,East,100,2.7,4.9,58,-99.99,,---,-99.99,VWS V14.01,2013-05-08 03:58:00,